[Iaude] MPEC U219: 2023 UT6 [a=1.26,e=0.17,i=26.9,H=25.1]
    mpec at marsden.cfa.harvard.edu 
    mpec at marsden.cfa.harvard.edu
       
    Mon Oct 23 16:30:34 EDT 2023
    
    
  
M.P.E.C. 2023-U219                             Issued 2023 October 23, 20:28 UT
     The Minor Planet Electronic Circulars contain information on unusual
         minor planets, routine data on comets and natural satellites,
         and occasional editorial announcements.  They are published
    on behalf of Division F of the International Astronomical Union by the
          Minor Planet Center, Smithsonian Astrophysical Observatory,
                          Cambridge, MA 02138, U.S.A.
			  
             Prepared using the Tamkin Foundation Computer Network
                              MPC at CFA.HARVARD.EDU
            URL https://www.minorplanetcenter.net/    ISSN 1523-6714
                                    2023 UT6                                    
Observations:
     K23U06T* C2023 10 21.52480302 56 06.094+19 52 14.15         20.79wXEU219F51
     K23U06T  C2023 10 21.53662302 56 05.953+19 48 55.03         21.02wXEU219F51
     K23U06T  C2023 10 21.56427402 56 05.673+19 41 08.26         21.01wXEU219F51
     K23U06T KC2023 10 21.63029802 56 05.438+19 22 32.10         19.80GVEU219F51
     K23U06T KC2023 10 22.21743202 56 24.10 +16 38 51.2          21.1 VuEU219H21
     K23U06T KC2023 10 22.22022802 56 24.09 +16 38 04.9          21.1 VuEU219H21
     K23U06T KC2023 10 22.22047202 56 25.937+16 38 05.64         20.63GVEU219I52
     K23U06T KC2023 10 22.22237802 56 25.897+16 37 34.72         21.59GVEU219I52
     K23U06T KC2023 10 22.22428902 56 25.876+16 37 03.11         21.38GVEU219I52
     K23U06T KC2023 10 22.22451402 56 24.06 +16 36 53.6          21.2 VuEU219H21
     K23U06T KC2023 10 22.22619102 56 25.883+16 36 31.14         21.27GVEU219I52
     K23U06T  C2023 10 22.39332102 56 28.197+15 50 43.20         21.30GVEU219F51
     K23U06T  C2023 10 22.39413302 56 28.188+15 50 29.76         21.09GVEU219F51
     K23U06T KC2023 10 23.24063402 56 40.80 +11 59 46.5          21.6 VuEU219H21
     K23U06T KC2023 10 23.24419002 56 40.76 +11 58 49.3          21.7 VuEU219H21
     K23U06T KC2023 10 23.25242302 56 40.66 +11 56 37.2          21.7 VuEU219H21
Observer details:
F51 Pan-STARRS 1, Haleakala.  Observers J. Bulger, T. Lowe, P. Minguez, A.
    Schultz, I. Smith.  Measurers K. Chambers, T. de Boer, J. Fairlamb, H.
    Gao, M. Huber, C.-C. Lin, E. Magnier, Y. Ramanjooloo, R. Wainscoat, R.
    Weryk.  1.8-m Ritchey-Chretien + CCD.
H21 Astronomical Research Observatory, Westfield.  Observer R. Holmes.
    Measurers T. Linder, R. Holmes, L. Horn.  0.76-m f/3.0 astrograph + CCD,
    0.81-m f/4.0 astrograph + CCD.
I52 Steward Observatory, Mt. Lemmon Station.  Observer J. B. Fazekas.
    Measurers E. C. Beshore, D. Fay, J. B. Fazekas, D. C. Fuls, A. R. Gibbs,
    A. D. Grauer, H. Groeller, J. K. Hogan, R. A. Kowalski, S. M. Larson, G.
    J. Leonard, D. Rankin, R. L. Seaman, F. C. Shelly, K. W. Wierzchos.  1.0-m
    prime focus + CCD.
Orbital elements:
2023 UT6                                                 Earth MOID = 0.0933 AU
Epoch 2023 Sept. 13.0 TT = JDT 2460200.5                Veres                   
M   6.76468              (2000.0)            P               Q                  
n   0.69905258     Peri.  132.44265     +0.91286071     +0.34028677             
a   1.2573692      Node   209.86955     -0.34803657     +0.93746331             
e   0.1729256      Incl.   26.93406     +0.21343822     +0.07326287             
P   1.41           H   25.13          G   0.15           U   8                  
Residuals in seconds of arc
231021 F51  0.0   0.3-    231022 I52  0.4+  0.1-    231022 F51  0.2-  0.3-
231021 F51  0.1-  0.0     231022 I52  0.1-  0.4+    231023 H21  0.1-  0.0
231021 F51  0.1-  0.0     231022 I52  0.3-  0.4+    231023 H21  0.0   0.1-
231021 F51  0.1+  0.2+    231022 H21  0.5+  0.3-    231023 H21  0.0   0.2+
231022 H21  0.3+  0.1+    231022 I52  0.1-  0.2-
231022 H21  0.5+  0.1+    231022 F51  0.2-  0.2-
Ephemeris:
2023 UT6                 a,e,i = 1.26, 0.17, 27                  q = 1.0399
Date    TT    R. A. (2000) Decl.     Delta      r    Elong.  Phase     V
2023 09 23    23 25 59.8 +85 37 37   0.2416  1.0490    94.1    72.6    24.7
...
2023 10 08    02 37 12.8 +68 54 22   0.1449  1.0673   114.3    58.6    23.2
...
2023 10 16    02 52 33.5 +44 42 41   0.1077  1.0806   138.9    37.4    22.0
...
2023 10 22    02 56 17.9 +17 39 55   0.1014  1.0919   161.2    17.1    21.3
2023 10 23    02 56 36.0 +13 05 27   0.1028  1.0939   163.1    15.4    21.2
2023 10 24    02 56 50.1 +08 40 04   0.1049  1.0959   163.7    14.8    21.3
...
2023 10 30    02 57 16.4 -12 50 40   0.1293  1.1086   151.6    25.2    22.1
...
2023 11 07    02 56 29.5 -28 37 09   0.1808  1.1269   135.3    38.2    23.2
...
2023 11 22    02 55 36.9 -38 58 45   0.2967  1.1642   119.8    47.4    24.6
M. P. C. Staff               (C) Copyright 2023 MPC           M.P.E.C. 2023-U219
    
    
More information about the Iaude
mailing list